Date,TemperatureHighF,TemperatureAvgF,TemperatureLowF,DewpointHighF,DewpointAvgF,DewpointLowF,HumidityHigh,HumidityAvg,HumidityLow,PressureMaxIn,PressureMinIn,WindSpeedMaxMPH,WindSpeedAvgMPH,GustSpeedMaxMPH,PrecipitationSumIn
2013-1-1,46.0,35.7,25.0,18.0,14.8,12.0,66,44,26,30.56,30.42,7,1,13,0.00
2013-1-2,49.0,37.4,27.0,17.0,15.1,13.0,59,42,25,30.52,30.35,5,1,10,0.00
2013-1-3,50.0,38.9,26.0,15.0,9.6,3.0,56,32,14,30.54,30.41,6,1,12,0.00
2013-1-4,49.0,36.7,26.0,11.0,9.0,7.0,48,33,18,30.56,30.45,3,0,8,0.00
2013-1-5,49.0,37.5,27.0,14.0,11.6,9.0,51,35,22,30.59,30.38,4,0,6,0.00
2013-1-6,50.0,39.8,33.0,20.0,15.5,12.0,51,38,25,30.38,30.14,3,0,7,0.00
2013-1-7,59.0,44.5,33.0,26.0,16.8,9.0,65,37,14,30.28,30.16,13,2,22,0.00
2013-1-8,62.0,48.5,35.0,30.0,23.7,13.0,57,38,29,30.40,30.22,6,1,11,0.00
2013-1-9,59.0,47.7,38.0,32.0,29.0,28.0,68,50,32,30.40,30.02,3,0,6,0.00
2013-1-10,55.0,46.4,37.0,34.0,21.7,3.0,63,39,19,30.03,29.81,15,6,25,0.00
2013-1-11,45.0,36.4,28.0,18.0,10.4,6.0,45,34,21,30.22,30.03,12,2,19,0.00
2013-1-12,41.0,32.6,24.0,11.0,6.5,1.0,54,34,20,30.34,30.21,8,1,13,0.00
2013-1-13,36.0,28.6,19.0,7.0,4.8,0.0,56,37,24,30.44,30.32,12,2,23,0.00
2013-1-14,36.0,29.4,23.0,5.0,-0.7,-3.0,40,28,18,30.66,30.44,14,8,25,0.00
2013-1-15,43.0,31.2,20.0,13.0,7.3,2.0,46,37,26,30.79,30.65,4,0,10,0.00
2013-1-16,54.0,39.0,27.0,22.0,17.8,11.0,59,43,28,30.73,30.54,4,0,9,0.00
2013-1-17,58.0,42.4,30.0,19.0,14.9,13.0,56,36,17,30.63,30.47,3,0,7,0.00
2013-1-18,57.0,42.9,31.0,16.0,14.6,13.0,47,33,19,30.55,30.41,4,0,7,0.00
2013-1-19,59.0,44.0,31.0,17.0,13.2,10.0,47,30,16,30.56,30.40,4,0,7,0.00
2013-1-20,63.0,45.6,33.0,15.0,12.6,10.0,40,27,14,30.47,30.33,3,0,6,0.00
2013-1-21,63.0,46.1,32.0,13.0,10.6,8.0,39,25,12,30.47,30.33,3,0,7,0.00
2013-1-22,63.0,48.1,35.0,17.0,12.8,8.0,36,25,15,30.42,30.31,4,1,6,0.00
2013-1-23,61.0,49.7,40.0,22.0,17.3,13.0,38,28,18,30.40,30.28,3,0,6,0.00
2013-1-24,55.0,51.2,48.0,44.0,36.8,21.0,79,59,30,30.39,30.26,6,0,8,0.03
2013-1-25,61.0,54.0,48.0,49.0,43.6,41.0,88,69,51,30.39,30.14,4,0,10,0.05
2013-1-26,58.0,51.6,47.0,51.0,48.7,45.0,95,90,74,30.15,29.94,4,0,6,0.38
2013-1-27,59.0,52.3,44.0,47.0,38.6,29.0,95,61,46,30.00,29.92,17,9,27,0.01
2013-1-28,49.0,44.5,41.0,31.0,19.7,10.0,62,38,23,30.22,29.99,14,5,24,0.01
2013-1-29,55.0,44.8,34.0,30.0,24.7,18.0,66,46,33,30.41,30.17,6,2,14,0.00
2013-1-30,61.0,47.0,36.0,33.0,29.7,27.0,73,53,31,30.50,30.37,3,0,9,0.00
2013-1-31,63.0,53.0,38.0,35.0,33.3,31.0,78,49,32,30.46,30.31,2,0,7,0.00
2013-2-1,63.0,50.4,37.0,36.0,33.2,31.0,81,54,32,30.41,30.31,4,0,8,0.00
2013-2-2,64.0,53.2,42.0,36.0,31.8,27.0,72,47,25,30.48,30.31,3,0,6,0.00
2013-2-3,65.0,55.9,48.0,37.0,33.5,30.0,57,44,30,30.32,30.13,4,0,6,0.00
2013-2-4,66.0,53.3,42.0,35.0,29.7,25.0,67,43,21,30.27,30.13,4,0,8,0.00
2013-2-5,65.0,52.9,40.0,32.0,27.8,25.0,58,40,23,30.17,29.97,6,0,9,0.00
2013-2-6,69.0,56.9,45.0,32.0,23.8,16.0,53,30,14,30.18,29.94,12,3,19,0.00
2013-2-7,67.0,53.0,40.0,27.0,23.0,18.0,52,33,18,30.23,29.88,10,2,20,0.00
2013-2-8,55.0,47.9,40.0,32.0,24.8,19.0,56,41,25,29.88,29.80,20,8,31,0.00
2013-2-9,53.0,44.8,38.0,28.0,23.6,20.0,63,45,29,30.12,29.86,11,1,18,0.00
2013-2-10,56.0,43.9,36.0,26.0,19.2,15.0,51,38,22,30.19,30.05,11,3,21,0.00
2013-2-11,51.0,43.5,38.0,26.0,13.9,7.0,55,32,18,30.39,30.19,13,5,27,0.00
2013-2-12,53.0,41.6,29.0,18.0,14.5,12.0,50,34,21,30.53,30.39,4,0,9,0.00
2013-2-13,61.0,46.7,33.0,25.0,21.1,16.0,54,37,24,30.47,30.30,3,0,9,0.00
2013-2-14,65.0,52.3,39.0,28.0,25.1,22.0,56,37,20,30.43,30.30,10,3,17,0.00
2013-2-15,65.0,52.0,37.0,26.0,22.5,19.0,58,34,17,30.54,30.43,7,2,12,0.00
2013-2-16,64.0,50.8,38.0,24.0,21.3,19.0,52,33,18,30.50,30.13,3,0,7,0.00
2013-2-17,71.0,54.2,37.0,22.0,15.6,9.0,48,24,11,30.13,29.91,7,1,12,0.00
2013-2-18,60.0,50.7,39.0,22.0,19.2,13.0,47,29,19,30.20,29.99,6,1,12,0.00
2013-2-19,64.0,49.1,35.0,29.0,23.4,19.0,53,38,19,29.99,29.67,17,6,28,0.00
2013-2-20,55.0,46.1,39.0,39.0,30.8,25.0,82,57,36,30.00,29.63,14,3,25,0.03
2013-2-21,54.0,42.3,32.0,34.0,21.7,14.0,82,48,22,30.22,29.99,5,0,10,0.01
2013-2-22,56.0,44.3,32.0,19.0,15.2,12.0,47,32,19,30.36,30.22,4,0,10,0.00
2013-2-23,62.0,47.0,36.0,24.0,17.3,1.0,53,32,12,30.25,29.96,18,6,28,0.00
2013-2-24,56.0,46.7,40.0,13.0,8.1,3.0,31,21,12,30.38,30.21,20,10,30,0.00
2013-2-25,57.0,43.7,30.0,15.0,12.1,10.0,45,29,16,30.43,30.16,7,1,11,0.00
2013-2-26,57.0,46.4,32.0,16.0,10.9,5.0,45,25,13,30.42,30.21,14,4,21,0.00
2013-2-27,57.0,45.0,31.0,15.0,9.2,1.0,44,25,11,30.55,30.41,7,2,14,0.00
2013-2-28,64.0,48.9,33.0,15.0,10.1,6.0,34,22,12,30.59,30.47,3,0,7,0.00
2013-3-1,72.0,55.8,40.0,28.0,21.0,13.0,36,26,18,30.60,30.40,6,1,10,0.00
2013-3-2,73.0,60.2,45.0,31.0,28.2,21.0,46,31,20,30.45,30.13,9,1,14,0.00
2013-3-3,76.0,67.3,58.0,35.0,28.4,21.0,38,24,18,30.12,29.83,20,12,34,0.00
2013-3-4,72.0,60.9,50.0,39.0,32.5,24.0,54,36,18,30.18,29.90,12,3,21,0.00
2013-3-5,72.0,58.6,43.0,32.0,29.2,28.0,54,35,20,30.22,29.98,13,2,22,0.00
2013-3-6,68.0,59.8,53.0,35.0,30.9,27.0,48,34,22,30.02,29.91,24,10,32,0.00
2013-3-7,61.0,55.1,48.0,33.0,31.3,27.0,54,41,29,30.00,29.89,19,5,29,0.00
2013-3-8,54.0,47.3,43.0,42.0,37.1,32.0,83,68,51,29.96,29.78,20,3,26,0.17
2013-3-9,61.0,51.4,43.0,40.0,35.8,30.0,89,59,32,30.31,29.96,12,3,21,0.02
2013-3-10,66.0,55.6,45.0,36.0,23.2,18.0,70,31,17,30.44,30.29,11,4,19,0.00
2013-3-11,72.0,56.9,41.0,29.0,25.3,23.0,52,32,17,30.37,30.17,3,0,9,0.00
2013-3-12,77.0,61.3,46.0,32.0,29.0,26.0,49,31,17,30.29,30.17,5,1,9,0.00
2013-3-13,82.0,65.2,50.0,35.0,31.4,29.0,48,30,16,30.34,30.19,5,1,9,0.00
2013-3-14,86.0,68.5,53.0,34.0,29.6,25.0,42,25,12,30.29,30.10,4,0,8,0.00
2013-3-15,86.0,69.9,54.0,36.0,29.1,15.0,46,24,7,30.11,29.89,8,2,12,0.00
2013-3-16,85.0,72.4,56.0,32.0,21.8,6.0,35,17,6,29.92,29.75,9,2,20,0.00
2013-3-17,80.0,70.7,62.0,25.0,13.6,-1.0,20,12,5,29.96,29.76,9,4,23,0.00
2013-3-18,76.0,64.7,49.0,21.0,13.0,8.0,30,14,8,30.09,29.91,9,2,13,0.00
2013-3-19,77.0,67.1,55.0,25.0,20.6,14.0,27,17,12,30.10,29.95,8,2,14,0.00
2013-3-20,75.0,68.3,61.0,35.0,29.8,22.0,32,24,18,30.07,29.83,21,7,29,0.00
2013-3-21,79.0,65.5,54.0,35.0,21.0,1.0,47,23,6,29.93,29.77,16,4,25,0.00
2013-3-22,74.0,63.1,51.0,16.0,3.9,-29.0,21,11,2,29.93,29.78,15,4,25,0.00
2013-3-23,61.0,52.4,45.0,10.0,5.8,-29.0,22,16,2,30.27,29.92,18,5,29,0.00
2013-3-24,70.0,54.7,40.0,15.0,7.7,3.0,28,16,8,30.25,30.05,5,1,11,0.00
2013-3-25,74.0,59.5,45.0,19.0,15.3,11.0,31,19,10,30.16,29.97,6,1,10,0.00
2013-3-26,79.0,66.6,53.0,31.0,20.2,12.0,27,18,9,29.98,29.80,13,6,21,0.00
2013-3-27,77.0,66.8,54.0,36.0,30.3,25.0,41,27,15,29.96,29.84,14,5,22,0.00
2013-3-28,78.0,66.8,57.0,39.0,35.2,30.0,48,32,20,30.06,29.96,12,5,21,0.00
2013-3-29,81.0,68.9,54.0,35.0,31.8,26.0,45,27,17,30.16,30.03,6,2,15,0.00
2013-3-30,86.0,69.8,58.0,33.0,29.1,-99.9,33,23,14,30.12,29.98,5,1,11,0.00
2013-3-31,79.0,69.1,54.0,40.0,34.1,27.0,43,28,16,30.02,29.88,16,8,25,0.00
2013-4-1,76.0,64.7,55.0,41.0,34.8,27.0,55,35,20,30.03,29.94,18,6,26,0.00
2013-4-2,76.0,65.2,53.0,32.0,30.3,28.0,41,28,19,30.08,29.98,15,3,21,0.00
2013-4-3,82.0,68.0,53.0,38.0,32.4,28.0,47,29,14,30.18,30.03,4,1,12,0.00
2013-4-4,86.0,70.4,55.0,41.0,30.9,24.0,42,25,12,30.09,29.88,19,4,28,0.00
2013-4-5,83.0,71.5,59.0,40.0,33.5,22.0,46,27,13,29.98,29.85,19,6,28,0.00
2013-4-6,84.0,70.9,57.0,35.0,30.4,23.0,40,24,12,29.99,29.84,8,2,13,0.00
2013-4-7,86.0,72.4,58.0,35.0,29.1,16.0,38,22,8,29.91,29.56,16,4,27,0.00
2013-4-8,70.0,58.7,46.0,42.0,30.6,19.0,77,37,15,29.70,29.36,23,10,34,0.06
2013-4-9,68.0,57.7,51.0,24.0,19.9,16.0,28,23,14,30.16,29.70,18,12,29,0.02
2013-4-10,73.0,60.7,47.0,24.0,20.0,14.0,35,22,12,30.24,30.02,9,3,19,0.00
2013-4-11,78.0,63.8,50.0,26.0,22.2,18.0,33,21,12,30.04,29.79,4,0,8,0.00
2013-4-12,83.0,67.7,53.0,33.0,29.4,20.0,41,25,15,29.95,29.78,5,1,10,0.00
2013-4-13,85.0,74.5,60.0,32.0,26.1,20.0,28,18,9,29.84,29.54,19,10,30,0.00
2013-4-14,86.0,73.1,61.0,38.0,32.3,26.0,37,23,15,29.72,29.46,18,6,28,0.00
2013-4-15,77.0,66.9,59.0,34.0,29.9,23.0,36,26,14,29.63,29.48,21,13,34,0.00
2013-4-16,64.0,56.4,50.0,34.0,26.6,20.0,48,33,20,29.99,29.60,19,8,34,0.00
2013-4-17,64.0,55.1,48.0,28.0,17.9,6.0,43,25,11,30.31,29.99,14,8,25,0.00
2013-4-18,66.0,56.0,47.0,21.0,11.9,6.0,31,18,10,30.41,30.29,9,3,19,0.00
2013-4-19,77.0,62.2,45.0,18.0,12.1,8.0,26,15,8,30.36,30.01,7,2,11,0.00
2013-4-20,80.0,69.1,53.0,30.0,21.3,11.0,25,17,10,30.12,29.98,10,2,16,0.00
2013-4-21,90.0,71.6,52.0,27.0,19.9,10.0,30,16,6,30.11,29.88,11,2,21,0.00
2013-4-22,91.0,78.9,61.0,27.0,22.7,8.0,25,13,7,29.94,29.69,14,3,22,0.00
2013-4-23,78.0,65.0,57.0,23.0,13.0,5.0,20,14,7,30.15,29.76,20,8,28,0.00
2013-4-24,77.0,64.7,48.0,14.0,7.0,-4.0,23,11,4,30.09,29.91,8,2,16,0.00
2013-4-25,84.0,69.6,54.0,18.0,12.6,6.0,21,12,6,29.99,29.89,8,2,16,0.00
2013-4-26,87.0,74.3,58.0,32.0,21.5,13.0,30,15,7,30.17,29.99,6,2,13,0.00
2013-4-27,90.0,75.7,57.0,21.0,15.8,11.0,24,11,6,30.19,29.97,7,1,12,0.00
2013-4-28,96.0,79.8,61.0,23.0,17.0,13.0,20,10,5,29.99,29.77,8,2,15,0.00
2013-4-29,98.0,83.9,67.0,30.0,20.8,13.0,22,11,5,29.83,29.59,14,4,20,0.00
2013-4-30,93.0,83.5,73.0,38.0,31.1,23.0,23,15,9,29.69,29.55,14,8,24,0.00
2013-5-1,80.0,71.0,62.0,30.0,-2.6,-20.0,18,6,2,30.36,29.69,16,10,27,0.00
2013-5-2,77.0,66.0,56.0,9.0,2.6,-6.0,12,8,4,30.50,30.22,18,8,30,0.00
2013-5-3,86.0,69.1,54.0,19.0,6.3,-14.0,21,10,2,30.24,29.81,7,1,11,0.00
2013-5-4,91.0,77.0,57.0,24.0,8.5,-2.0,16,8,4,29.81,29.58,14,5,22,0.00
2013-5-5,81.0,73.2,66.0,28.0,21.9,13.0,24,15,9,29.81,29.67,15,8,27,0.00
2013-5-6,78.0,67.6,60.0,40.0,36.0,29.0,42,32,21,29.92,29.80,19,8,29,0.00
2013-5-7,71.0,62.6,56.0,42.0,37.9,34.0,52,41,26,30.00,29.91,14,5,27,0.00
2013-5-8,75.0,64.3,54.0,41.0,38.6,36.0,52,40,27,30.12,30.00,13,2,19,0.00
2013-5-9,77.0,67.4,56.0,45.0,39.6,36.0,48,37,25,30.09,30.01,12,3,20,0.00
2013-5-10,86.0,72.3,58.0,45.0,36.7,-99.9,52,32,13,30.15,30.03,10,2,18,0.00
2013-5-11,92.0,77.6,62.0,41.0,33.4,-99.9,37,22,11,30.19,30.06,7,2,21,0.00
2013-5-12,97.0,82.9,65.0,33.0,27.4,24.0,25,14,8,30.16,29.96,7,1,13,0.00
2013-5-13,102.0,87.4,68.0,34.0,25.5,20.0,26,12,6,30.03,29.83,9,2,14,0.00
2013-5-14,100.0,88.7,76.0,34.0,25.8,4.0,20,11,4,29.85,29.66,18,8,29,0.00
2013-5-15,97.0,83.2,70.0,36.0,30.2,22.0,26,15,9,29.86,29.71,20,7,31,0.00
2013-5-16,92.0,77.0,70.0,34.0,14.1,-99.9,25,15,6,29.78,29.64,17,10,28,0.00
2013-5-17,84.0,74.5,68.0,40.0,32.0,-99.9,34,25,18,29.88,29.69,22,12,31,0.00
2013-5-18,88.0,76.1,63.0,41.0,34.3,19.0,41,24,9,29.96,29.82,8,2,19,0.00
2013-5-19,85.0,76.5,63.0,36.0,27.0,17.0,27,17,10,29.99,29.84,16,6,24,0.00
2013-5-20,84.0,74.1,65.0,35.0,24.0,17.0,31,17,9,30.11,29.95,16,4,25,0.00
2013-5-21,92.0,78.0,61.0,36.0,23.5,5.0,25,15,4,29.98,29.66,19,5,26,0.00
2013-5-22,90.0,80.2,71.0,33.0,23.5,-1.0,22,14,3,29.67,29.53,22,13,35,0.00
2013-5-23,86.0,73.9,63.0,32.0,13.7,-13.0,25,13,2,29.82,29.59,23,11,34,0.00
2013-5-24,91.0,76.9,58.0,23.0,14.9,7.0,19,10,6,29.92,29.77,13,4,21,0.00
2013-5-25,90.0,78.0,67.0,30.0,19.8,3.0,25,13,4,29.88,29.79,16,9,26,0.00
2013-5-26,88.0,78.2,67.0,32.0,28.6,25.0,25,17,10,29.88,29.78,17,11,28,0.00
2013-5-27,93.0,79.2,64.0,35.0,29.4,22.0,30,18,8,29.88,29.68,17,5,22,0.00
2013-5-28,91.0,79.9,68.0,35.0,29.4,16.0,27,17,9,29.72,29.58,15,7,25,0.00
2013-5-29,93.0,79.7,68.0,37.0,31.7,16.0,26,18,10,29.80,29.60,10,4,16,0.00
2013-5-30,97.0,83.8,67.0,37.0,29.1,21.0,28,15,7,29.84,29.65,13,4,21,0.00
2013-5-31,95.0,85.0,71.0,27.0,20.8,15.0,19,10,6,29.93,29.72,11,4,27,0.00
2013-6-1,96.0,83.4,71.0,27.0,17.8,8.0,17,9,4,29.98,29.75,9,3,17,0.00
2013-6-2,104.0,87.9,69.0,32.0,19.1,11.0,19,9,4,29.77,29.57,15,4,25,0.00
2013-6-3,102.0,90.6,76.0,38.0,28.7,18.0,24,12,5,29.71,29.60,12,5,20,0.00
2013-6-4,101.0,89.0,74.0,37.0,26.0,13.0,22,11,4,29.80,29.68,11,3,18,0.00
2013-6-5,103.0,90.4,75.0,34.0,26.0,20.0,18,10,6,29.86,29.69,8,2,12,0.00
2013-6-6,106.0,93.0,74.0,35.0,26.9,20.0,21,10,5,29.82,29.65,6,2,11,0.00
2013-6-7,109.0,93.8,75.0,34.0,23.1,10.0,19,9,3,29.78,29.62,6,2,11,0.00
2013-6-8,110.0,96.4,80.0,29.0,23.9,18.0,15,8,4,29.71,29.61,13,3,23,0.00
2013-6-9,109.0,94.9,80.0,41.0,27.5,13.0,21,10,4,29.79,29.66,15,5,23,0.00
2013-6-10,100.0,89.1,79.0,41.0,26.3,6.0,20,11,4,29.76,29.64,19,9,28,0.00
2013-6-11,102.0,86.9,71.0,37.0,31.9,24.0,28,15,7,29.92,29.73,12,4,23,0.00
2013-6-12,104.0,93.2,81.0,35.0,29.6,21.0,16,11,6,29.84,29.70,19,8,29,0.00
2013-6-13,99.0,86.8,78.0,40.0,27.1,-8.0,25,14,2,29.83,29.70,18,11,26,0.00
2013-6-14,101.0,84.2,67.0,23.0,11.7,-10.0,17,8,2,29.85,29.68,10,3,17,0.00
2013-6-15,100.0,81.1,70.0,20.0,9.2,-9.0,11,7,2,29.81,29.73,16,3,23,0.00
2013-6-16,94.0,80.3,73.0,25.0,14.7,6.0,14,9,4,29.91,29.79,12,5,19,0.00
2013-6-17,102.0,84.5,73.0,26.0,16.5,-2.0,15,9,2,29.90,29.73,10,3,17,0.00
2013-6-18,101.0,88.3,77.0,27.0,19.9,-4.0,14,9,2,29.77,29.59,20,10,34,0.00
2013-6-19,96.0,85.0,73.0,37.0,24.5,8.0,23,13,4,29.73,29.61,17,7,26,0.00
2013-6-20,97.0,80.3,69.0,15.0,10.2,3.0,10,7,4,29.78,29.67,12,3,21,0.00
2013-6-21,96.0,95.0,94.0,18.0,17.5,17.0,6,6,6,29.74,29.67,11,10,18,0.00
2013-6-22,99.0,91.3,71.0,25.0,21.3,16.0,17,8,5,29.83,29.66,7,3,13,0.00
2013-6-23,99.0,87.7,74.0,35.0,27.6,19.0,20,12,6,29.71,29.55,17,7,25,0.00
2013-6-24,89.0,81.9,73.0,46.0,39.3,30.0,31,22,14,29.78,29.60,20,10,29,0.00
2013-6-25,98.0,85.6,72.0,49.0,46.3,43.0,43,27,16,29.89,29.76,16,8,26,0.00
2013-6-26,104.0,92.6,80.0,52.0,48.0,42.0,35,23,14,29.92,29.80,14,7,24,0.00
2013-6-27,108.0,96.4,78.0,49.0,44.4,36.0,34,18,11,29.99,29.84,7,2,17,0.00
2013-6-28,112.0,98.2,82.0,47.0,42.3,36.0,26,16,8,29.92,29.72,5,1,12,0.00
2013-6-29,114.0,101.5,86.0,44.0,37.7,32.0,20,12,7,29.80,29.63,7,1,13,0.00
2013-6-30,116.0,101.5,87.0,41.0,36.4,32.0,19,11,6,29.75,29.59,8,1,15,0.00
2013-7-1,111.0,101.7,92.0,54.0,45.6,41.0,24,16,11,29.76,29.65,13,4,22,0.00
2013-7-2,113.0,101.9,85.0,48.0,44.2,40.0,26,15,9,29.81,29.64,10,3,19,0.00
2013-7-3,112.0,100.9,88.0,52.0,44.3,38.0,26,16,9,29.76,29.57,11,2,15,0.00
2013-7-4,112.0,101.4,87.0,48.0,44.1,40.0,24,15,10,29.66,29.51,14,3,22,0.00
2013-7-5,109.0,97.6,86.0,54.0,49.0,41.0,31,20,11,29.68,29.55,18,5,29,0.00
2013-7-6,104.0,93.7,86.0,57.0,49.0,43.0,36,23,13,29.73,29.60,11,6,18,0.01
2013-7-7,103.0,92.9,83.0,58.0,46.7,35.0,42,22,12,29.77,29.63,8,2,19,0.01
2013-7-8,106.0,92.3,79.0,46.0,32.8,18.0,27,15,5,29.88,29.73,15,3,26,0.00
2013-7-9,108.0,96.4,82.0,36.0,27.5,20.0,14,9,5,29.94,29.81,13,7,24,0.00
2013-7-10,108.0,94.0,85.0,59.0,41.9,-99.9,35,18,11,29.88,29.70,15,4,25,0.00
2013-7-11,91.0,86.4,80.0,63.0,57.6,43.0,53,39,20,29.88,29.75,16,6,26,0.02
2013-7-12,92.0,83.9,78.0,64.0,60.2,58.0,58,46,33,29.93,29.82,10,1,17,0.02
2013-7-13,102.0,89.7,75.0,60.0,53.7,37.0,58,34,12,29.94,29.77,11,2,20,0.00
2013-7-14,104.0,92.2,80.0,56.0,48.6,41.0,30,23,17,29.90,29.73,7,2,14,0.00
2013-7-15,106.0,95.6,85.0,55.0,48.6,41.0,34,22,14,29.78,29.61,12,4,22,0.00
2013-7-16,105.0,93.2,83.0,49.0,40.2,34.0,20,16,12,29.85,29.70,13,6,25,0.00
2013-7-17,105.0,92.9,81.0,50.0,37.7,13.0,20,15,6,29.97,29.81,8,3,15,0.00
2013-7-18,108.0,95.5,79.0,54.0,31.3,13.0,24,11,6,29.93,29.72,8,2,14,0.00
2013-7-19,108.0,94.3,79.0,66.0,53.6,41.0,63,28,11,29.83,29.65,16,3,23,0.22
2013-7-20,105.0,89.0,75.0,68.0,60.5,-99.9,72,42,24,29.85,29.65,17,3,31,0.22
2013-7-21,90.0,82.4,76.0,67.0,64.7,62.0,75,56,43,29.91,29.75,11,3,18,0.07
2013-7-22,96.0,85.8,76.0,66.0,62.8,56.0,70,48,30,29.97,29.83,11,2,21,0.00
2013-7-23,94.0,85.7,77.0,64.0,59.8,58.0,56,43,31,29.97,29.83,12,1,17,0.00
2013-7-24,105.0,93.0,79.0,61.0,57.1,50.0,52,33,17,29.90,29.72,8,2,16,0.00
2013-7-25,108.0,96.9,84.0,57.0,52.2,48.0,32,23,14,29.88,29.74,12,3,21,0.00
2013-7-26,103.0,92.3,83.0,60.0,56.0,48.0,41,30,20,29.96,29.86,12,4,20,0.00
2013-7-27,90.0,83.9,77.0,64.0,61.1,58.0,59,47,35,30.03,29.82,13,4,24,0.00
2013-7-28,95.0,83.7,76.0,67.0,58.8,52.0,68,44,25,29.85,29.75,19,3,28,0.02
2013-7-29,101.0,86.0,72.0,59.0,50.3,34.0,59,35,12,29.94,29.84,12,3,19,0.02
2013-7-30,103.0,93.0,80.0,49.0,41.9,33.0,25,17,13,30.04,29.90,10,4,22,0.00
2013-7-31,106.0,93.4,77.0,53.0,47.1,40.0,40,22,11,30.01,29.80,14,4,25,0.00
2013-8-1,104.0,92.6,82.0,49.0,30.3,16.0,24,12,5,29.87,29.71,21,7,31,0.00
2013-8-2,103.0,89.4,77.0,35.0,28.0,21.0,19,12,6,29.87,29.74,14,7,24,0.00
2013-8-3,104.0,89.5,72.0,35.0,30.9,26.0,25,13,7,29.92,29.79,12,4,22,0.00
2013-8-4,106.0,91.4,77.0,44.0,34.5,26.0,25,14,8,29.91,29.77,12,3,21,0.00
2013-8-5,103.0,91.4,78.0,36.0,24.5,12.0,18,10,5,29.91,29.76,16,5,22,0.00
2013-8-6,102.0,91.2,78.0,35.0,24.5,10.0,18,10,4,29.90,29.78,13,5,20,0.00
2013-8-7,96.0,86.4,78.0,31.0,23.3,9.0,16,11,4,29.93,29.81,14,8,24,0.00
2013-8-8,98.0,86.2,75.0,32.0,26.7,17.0,19,12,6,29.89,29.78,16,7,26,0.00
2013-8-9,100.0,87.2,75.0,30.0,26.1,22.0,17,11,7,29.88,29.77,18,5,25,0.00
2013-8-10,99.0,86.9,73.0,31.0,25.4,16.0,17,11,6,29.93,29.82,16,4,21,0.00
2013-8-11,100.0,85.8,71.0,35.0,25.4,15.0,23,12,5,29.95,29.79,9,2,21,0.00
2013-8-12,102.0,87.0,71.0,30.0,24.2,14.0,20,11,5,29.94,29.79,7,1,18,0.00
2013-8-13,102.0,86.7,71.0,29.0,19.3,-99.9,20,9,5,29.96,29.81,8,2,16,0.00
2013-8-14,105.0,88.1,71.0,31.0,20.0,-99.9,17,10,4,29.95,29.78,8,2,14,0.00
2013-8-15,105.0,82.6,74.0,48.0,20.4,-99.9,18,13,8,29.94,29.78,9,2,16,0.00
2013-8-16,106.0,92.6,81.0,53.0,44.4,-99.9,30,21,14,29.91,29.76,9,2,16,0.00
2013-8-17,107.0,94.9,81.0,52.0,44.0,-99.9,31,19,11,29.88,29.71,12,5,24,0.00
2013-8-18,98.0,85.2,74.0,69.0,56.7,51.0,79,41,23,30.02,29.82,20,2,26,0.21
2013-8-19,97.0,79.9,71.0,67.0,53.6,-99.9,81,52,27,30.08,29.85,9,2,19,0.18
2013-8-20,104.0,91.1,78.0,62.0,53.3,-99.9,59,32,15,29.90,29.73,10,2,17,0.00
2013-8-21,104.0,91.1,78.0,54.0,47.5,38.0,40,24,11,29.90,29.76,10,2,22,0.00
2013-8-22,100.0,91.0,80.0,53.0,49.1,43.0,33,24,16,29.90,29.78,20,5,30,0.00
2013-8-23,93.0,83.1,77.0,60.0,56.4,48.0,52,41,26,29.91,29.76,21,4,32,0.00
2013-8-24,90.0,81.1,75.0,64.0,56.4,-99.9,59,45,32,29.91,29.82,19,3,28,0.00
2013-8-25,90.0,78.2,71.0,66.0,60.0,56.0,70,55,36,30.07,29.91,12,2,21,0.00
2013-8-26,74.0,72.0,69.0,66.0,63.9,61.0,88,76,66,30.09,29.99,4,0,9,0.12
2013-8-27,86.0,72.6,67.0,65.0,63.2,62.0,87,74,46,30.01,29.97,6,1,10,0.13
2013-8-28,98.0,90.6,84.0,65.0,60.4,58.0,52,37,28,29.94,29.82,10,2,17,0.01
2013-8-29,98.0,87.4,76.0,65.0,62.6,60.0,63,45,30,30.01,29.90,10,2,15,0.01
2013-8-30,91.0,82.6,74.0,73.0,66.1,61.0,89,59,42,30.07,29.92,10,2,16,0.18
2013-8-31,89.0,81.1,77.0,69.0,65.3,-99.9,75,61,46,29.99,29.85,12,2,19,0.05
2013-9-1,93.0,82.5,74.0,69.0,67.2,65.0,81,61,42,29.96,29.82,6,1,12,0.01
2013-9-2,99.0,86.9,77.0,66.0,62.6,57.0,66,46,29,29.96,29.78,10,2,18,0.00
2013-9-3,95.0,85.7,75.0,65.0,60.5,53.0,68,45,27,30.00,29.85,8,1,16,0.01
2013-9-4,100.0,85.7,77.0,65.0,59.6,52.0,65,44,23,29.98,29.86,16,2,34,0.04
2013-9-5,100.0,84.9,72.0,64.0,59.3,53.0,73,46,23,29.99,29.87,8,1,25,0.04
2013-9-6,99.0,85.1,77.0,61.0,56.7,49.0,48,39,21,29.94,29.83,16,2,28,0.01
2013-9-7,87.0,80.5,77.0,62.0,56.2,-99.9,59,45,38,29.98,29.88,11,1,15,0.01
2013-9-8,86.0,76.7,69.0,66.0,62.7,59.0,86,63,45,29.98,29.82,6,1,11,0.04
2013-9-9,93.0,79.0,71.0,66.0,61.6,56.0,81,58,33,29.86,29.70,9,1,19,0.04
2013-9-10,84.0,75.7,70.0,64.0,58.7,51.0,80,57,35,29.91,29.83,7,2,13,0.09
2013-9-11,80.0,73.0,67.0,63.0,59.6,55.0,84,64,44,30.02,29.91,11,2,16,0.13
2013-9-12,83.0,73.5,66.0,63.0,60.2,57.0,85,65,42,30.06,29.90,3,0,8,0.11
2013-9-13,91.0,80.3,68.0,63.0,58.2,53.0,77,50,28,29.93,29.70,4,0,14,0.00
2013-9-14,91.0,78.6,70.0,60.0,55.0,-99.9,65,47,29,29.80,29.69,7,0,11,0.05
2013-9-15,96.0,84.2,70.0,60.0,53.9,49.0,63,39,22,29.86,29.75,4,0,10,0.05
2013-9-16,99.0,86.7,72.0,56.0,50.9,43.0,53,32,16,29.88,29.71,10,2,17,0.00
2013-9-17,99.0,87.2,76.0,48.0,36.7,22.0,32,19,8,29.75,29.56,19,6,38,0.00
2013-9-18,81.0,77.7,72.0,36.0,31.0,27.0,25,18,14,29.77,29.63,12,4,19,0.00
2013-9-19,91.0,78.8,64.0,37.0,32.2,27.0,29,19,11,29.92,29.77,9,2,17,0.00
2013-9-20,95.0,80.0,63.0,37.0,33.2,27.0,36,20,10,29.89,29.71,11,2,19,0.00
2013-9-21,94.0,80.5,72.0,42.0,30.5,-99.9,33,18,6,29.78,29.57,19,9,33,0.00
2013-9-22,79.0,70.7,62.0,44.0,36.8,31.0,39,29,21,29.88,29.59,19,8,30,0.00
2013-9-23,87.0,73.3,59.0,35.0,32.6,28.0,33,23,14,30.03,29.88,6,1,11,0.00
2013-9-24,93.0,76.7,58.0,36.0,30.5,25.0,38,20,9,30.01,29.73,16,5,27,0.00
2013-9-25,86.0,78.2,69.0,39.0,30.7,16.0,32,19,8,29.74,29.45,25,16,38,0.00
2013-9-26,73.0,65.3,58.0,36.0,25.7,15.0,35,23,13,29.94,29.55,21,7,31,0.00
2013-9-27,73.0,64.7,57.0,31.0,27.6,23.0,34,25,17,30.14,29.94,14,5,19,0.00
2013-9-28,80.0,65.5,53.0,29.0,24.4,-99.9,36,23,13,30.24,30.11,5,1,10,0.00
2013-9-29,86.0,70.6,53.0,30.0,24.6,19.0,34,19,10,30.17,29.98,7,1,12,0.00
2013-9-30,85.0,72.1,57.0,33.0,27.6,22.0,30,20,13,30.03,29.86,5,1,15,0.00
2013-10-1,89.0,80.9,75.0,32.0,30.2,27.0,19,16,13,29.86,29.81,9,6,16,0.00
2013-10-2,90.0,79.7,66.0,40.0,34.7,29.0,33,20,14,29.89,29.73,14,7,25,0.00
2013-10-3,83.0,73.1,62.0,34.0,27.4,3.0,32,19,8,30.03,29.73,17,7,29,0.00
2013-10-4,69.0,61.9,56.0,24.0,20.3,14.0,24,20,15,30.37,30.04,17,10,26,0.00
2013-10-5,73.0,62.5,53.0,25.0,21.6,18.0,31,21,13,30.48,30.32,11,3,18,0.00
2013-10-6,81.0,64.4,49.0,24.0,18.1,11.0,32,18,8,30.37,30.14,5,1,11,0.00
2013-10-7,79.0,66.8,54.0,30.0,19.3,10.0,27,17,12,30.14,29.91,4,0,9,0.00
2013-10-8,83.0,72.0,58.0,25.0,18.7,12.0,21,14,8,29.92,29.66,13,4,22,0.00
2013-10-9,68.0,61.5,52.0,41.0,34.4,26.0,64,37,21,29.76,29.59,14,7,23,0.00
2013-10-10,67.0,57.3,49.0,43.0,39.9,37.0,73,53,38,30.06,29.76,10,1,17,0.00
2013-10-11,70.0,59.2,48.0,42.0,39.1,37.0,71,49,32,30.17,30.05,6,0,9,0.00
2013-10-12,76.0,63.1,49.0,41.0,35.6,-99.9,63,39,24,30.10,29.90,5,0,10,0.00
2013-10-13,74.0,66.2,61.0,35.0,32.1,27.0,38,28,18,30.09,29.86,14,6,23,0.00
2013-10-14,71.0,60.5,48.0,37.0,33.1,27.0,56,37,24,30.23,30.09,7,1,14,0.00
2013-10-15,71.0,60.8,48.0,32.0,27.9,24.0,46,30,18,30.20,30.09,13,4,23,0.00
2013-10-16,71.0,60.4,49.0,29.0,25.1,21.0,42,27,16,30.31,30.15,8,2,13,0.00
2013-10-17,76.0,60.5,46.0,25.0,22.1,19.0,38,24,12,30.20,30.02,3,0,7,0.00
2013-10-18,77.0,62.9,48.0,26.0,23.4,20.0,35,23,14,30.23,30.07,6,1,11,0.00
2013-10-19,79.0,63.2,49.0,28.0,22.0,-99.9,36,22,12,30.23,30.06,4,0,8,0.00
2013-10-20,81.0,65.2,49.0,24.0,19.6,15.0,30,18,10,30.08,29.93,3,0,8,0.00
2013-10-21,81.0,65.4,50.0,27.0,22.7,15.0,30,20,13,30.15,29.99,4,0,12,0.00
2013-10-22,81.0,66.3,53.0,29.0,25.3,23.0,34,22,13,30.18,30.04,5,0,10,0.00
2013-10-23,81.0,66.2,53.0,28.0,24.2,21.0,32,21,12,30.08,29.96,6,0,10,0.00
2013-10-24,82.0,69.2,55.0,29.0,24.0,21.0,28,19,12,30.05,29.97,2,0,9,0.00
2013-10-25,82.0,71.0,55.0,33.0,29.3,24.0,40,22,13,30.18,30.10,2,0,6,0.00
2013-10-26,83.0,67.0,55.0,32.0,26.5,-99.9,33,23,15,30.26,30.09,3,0,8,0.00
2013-10-27,84.0,69.3,57.0,33.0,25.8,22.0,29,20,11,30.09,29.59,18,5,27,0.00
2013-10-28,68.0,60.7,54.0,36.0,30.4,-99.9,46,33,23,29.85,29.52,25,17,39,0.00
2013-10-29,62.0,54.9,48.0,36.0,33.4,30.0,59,45,30,30.05,29.84,14,8,22,0.00
2013-10-30,64.0,54.2,44.0,37.0,32.8,27.0,66,45,30,30.19,30.05,8,1,13,0.00
2013-10-31,67.0,54.9,42.0,30.0,27.4,25.0,52,36,24,30.31,30.18,5,0,10,0.00
2013-11-1,71.0,57.8,44.0,34.0,29.8,25.0,51,35,24,30.36,30.20,3,0,9,0.00
2013-11-2,73.0,58.4,47.0,32.0,27.9,-99.9,49,33,20,30.22,29.91,3,0,9,0.00
2013-11-3,73.0,61.6,50.0,29.0,26.2,24.0,40,27,17,29.92,29.83,8,1,11,0.00
2013-11-4,61.0,54.6,46.0,32.0,25.4,20.0,47,33,21,30.14,29.85,13,4,19,0.00
2013-11-5,59.0,51.2,42.0,28.0,16.3,12.0,51,26,16,30.42,30.13,12,4,20,0.00
2013-11-6,66.0,51.0,38.0,20.0,16.7,14.0,39,27,15,30.54,30.42,3,0,8,0.00
2013-11-7,69.0,56.2,42.0,25.0,21.0,19.0,41,27,15,30.42,30.20,2,0,5,0.00
2013-11-8,70.0,56.8,43.0,24.0,20.9,18.0,40,26,16,30.22,30.08,3,0,8,0.00
2013-11-9,71.0,56.6,44.0,26.0,19.4,-99.9,39,25,16,30.24,30.14,4,0,7,0.00
2013-11-10,74.0,58.9,45.0,29.0,23.8,19.0,38,27,17,30.31,30.20,2,0,7,0.00
2013-11-11,77.0,60.5,47.0,28.0,24.9,20.0,44,27,14,30.32,30.22,3,0,8,0.00
2013-11-12,76.0,63.4,51.0,27.0,21.6,18.0,29,21,13,30.39,30.26,3,0,9,0.00
2013-11-13,77.0,64.7,54.0,27.0,21.6,19.0,26,20,13,30.26,30.10,2,0,7,0.00
2013-11-14,74.0,62.8,49.0,31.0,25.3,20.0,34,24,18,30.18,29.75,10,1,15,0.00
2013-11-15,72.0,63.4,51.0,28.0,24.8,21.0,35,24,16,29.73,29.62,12,2,19,0.00
2013-11-16,66.0,57.3,47.0,36.0,29.7,-99.9,45,36,28,29.95,29.70,19,7,28,0.00
2013-11-17,65.0,55.1,43.0,39.0,35.6,31.0,63,48,37,30.22,29.94,4,1,10,0.00
2013-11-18,65.0,55.4,45.0,39.0,36.8,34.0,67,51,37,30.27,30.08,2,0,8,0.00
2013-11-19,66.0,56.2,49.0,40.0,38.0,35.0,65,51,36,30.08,29.97,5,0,9,0.00
2013-11-20,65.0,55.4,48.0,42.0,38.2,35.0,64,53,40,29.98,29.88,3,0,10,0.00
2013-11-21,63.0,53.1,44.0,49.0,44.2,38.0,92,73,48,30.13,29.87,10,4,16,0.77
2013-11-22,46.0,44.4,42.0,41.0,38.7,37.0,87,80,74,30.20,30.09,11,6,17,0.31
2013-11-23,46.0,44.3,43.0,42.0,38.3,-99.9,91,83,74,30.29,30.16,8,2,14,0.22
2013-11-24,55.0,48.4,43.0,41.0,39.9,38.0,89,73,53,30.34,30.27,3,0,8,0.01
2013-11-25,62.0,49.6,39.0,42.0,38.1,35.0,88,67,38,30.43,30.33,2,0,7,0.00
2013-11-26,62.0,51.1,41.0,39.0,34.8,29.0,81,57,30,30.48,30.33,3,0,9,0.00
2013-11-27,61.0,50.4,42.0,39.0,36.0,33.0,79,60,36,30.34,30.15,7,1,12,0.00
2013-11-28,60.0,49.4,41.0,39.0,36.1,34.0,83,62,39,30.29,30.15,5,0,8,0.00
2013-11-29,61.0,49.8,39.0,39.0,35.6,33.0,82,60,36,30.40,30.28,3,0,9,0.00
2013-11-30,63.0,50.0,40.0,39.0,34.2,-99.9,80,58,35,30.42,30.30,3,0,7,0.00
2013-12-1,64.0,50.4,40.0,37.0,33.7,31.0,74,55,31,30.48,30.35,1,0,6,0.00
2013-12-2,62.0,49.6,40.0,39.0,35.9,33.0,77,61,38,30.35,29.90,3,0,7,0.00
2013-12-3,68.0,53.6,41.0,41.0,36.8,30.0,82,56,31,29.90,29.51,23,6,32,0.04
2013-12-4,43.0,38.3,33.0,34.0,18.0,8.0,87,47,25,30.22,29.77,15,7,24,0.08
2013-12-5,40.0,32.9,25.0,18.0,12.9,9.0,65,44,30,30.33,30.20,2,0,8,0.00
2013-12-6,40.0,31.9,23.0,20.0,16.5,13.0,76,54,38,30.43,30.25,4,0,9,0.00
2013-12-7,50.0,40.2,28.0,31.0,20.3,-99.9,73,48,23,30.25,29.90,19,8,30,0.00
2013-12-8,40.0,34.7,25.0,13.0,6.1,2.0,55,30,23,30.45,30.18,11,3,20,0.00
2013-12-9,38.0,32.3,25.0,12.0,4.0,-1.0,58,31,19,30.74,30.45,15,6,24,0.00
2013-12-10,44.0,33.4,22.0,14.0,9.3,5.0,57,38,22,30.72,30.46,4,0,8,0.00
2013-12-11,51.0,38.0,27.0,21.0,16.7,14.0,63,44,25,30.59,30.49,2,0,8,0.00
2013-12-12,54.0,41.7,31.0,23.0,20.2,18.0,62,44,24,30.53,30.31,4,0,8,0.00
2013-12-13,55.0,42.2,31.0,25.0,22.4,21.0,67,47,27,30.53,30.28,3,0,7,0.00
2013-12-14,57.0,47.0,38.0,24.0,21.4,-99.9,55,38,25,30.67,30.53,8,2,15,0.00
2013-12-15,61.0,45.8,34.0,28.0,25.4,23.0,67,47,25,30.62,30.46,1,0,5,0.00
2013-12-16,63.0,49.2,37.0,31.0,27.5,26.0,64,45,25,30.53,30.40,2,0,5,0.00
2013-12-17,64.0,50.5,40.0,31.0,28.0,26.0,58,43,24,30.48,30.27,2,0,5,0.00
2013-12-18,59.0,49.7,44.0,33.0,29.6,27.0,59,47,31,30.26,29.81,5,0,8,0.00
2013-12-19,59.0,51.4,41.0,37.0,31.6,25.0,73,48,35,29.88,29.70,16,4,22,0.00
2013-12-20,54.0,48.9,41.0,37.0,25.7,15.0,73,42,28,30.01,29.87,17,8,24,0.00
2013-12-21,63.0,49.8,38.0,31.0,22.7,-99.9,47,36,28,30.19,29.94,12,3,22,0.00
2013-12-22,58.0,48.0,36.0,30.0,27.9,26.0,69,47,31,30.49,30.20,3,0,9,0.00
2013-12-23,61.0,48.1,37.0,33.0,29.9,27.0,68,51,34,30.62,30.48,2,0,9,0.00
2013-12-24,64.0,50.3,37.0,35.0,32.1,30.0,75,51,32,30.50,30.37,3,0,8,0.00
2013-12-25,62.0,48.2,38.0,30.0,24.6,19.0,66,42,20,30.58,30.45,4,0,11,0.00
2013-12-26,63.0,47.9,35.0,21.0,17.3,14.0,46,31,16,30.54,30.41,2,0,6,0.00
2013-12-27,66.0,49.7,35.0,22.0,17.0,14.0,45,29,14,30.48,30.26,1,0,4,0.00
2013-12-28,58.0,47.0,39.0,26.0,20.9,-99.9,54,38,23,30.27,30.12,3,0,8,0.00
2013-12-29,56.0,49.3,38.0,23.0,15.4,12.0,55,26,17,30.44,30.28,13,5,21,0.00
2013-12-30,59.0,45.1,34.0,19.0,15.0,12.0,45,31,16,30.52,30.38,3,0,6,0.00
2013-12-31,58.0,45.9,34.0,21.0,18.3,16.0,50,35,20,30.42,30.29,3,0,6,0.00
2014-1-1,66.0,49.5,35.0,26.0,22.2,19.0,54,36,20,30.44,30.32,3,0,6,0.00
2014-1-2,65.0,50.5,39.0,28.0,25.0,22.0,56,38,22,30.40,30.25,3,0,5,0.00